[[{"header":{"parameterUnit":"m.s-1","parameterCategory":1,"la1":30.2991,"la2":30.254,"lo1":-89.0895,"lo2":-89.0444,"dy":0.0017,"dx":0.0017,"nx":28,"ny":28,"refTime":"2024-12-04T03:00:00:Z","depth":0,"parameterNumber":2,"parameterNumberName":"U-component_of_WINDS"},"data":[0,0,0,0,0,0,0,0,0,0,0,0,0,0,0,0,0,0,0,0,0,0,0,0,0,0,0,0,0,0,0,0,0,0,0,0,0,0,0,0,0,0,0,0,0,0,0,0,0,0,0,0,0,0,0,0,0,0,1.5743,1.5744,0,1.5823,1.5824,1.5825,1.584,1.5839,1.5839,1.5838,1.592,1.5923,1.5925,0,0,0,0,0,0,0,0,0,0,0,0,0,1.5606,1.5609,1.5743,1.5744,1.5745,1.5823,1.5824,1.5825,1.584,1.5839,1.5839,1.5838,1.5919,1.5922,1.5926,0,0,0,0,0,0,0,0,0,0,0,0,0,1.5674,1.5609,1.5743,1.5762,1.5765,1.5822,1.5824,1.5825,1.584,1.5839,1.5838,1.5838,1.5918,1.5922,1.5926,1.5971,0,0,1.5939,1.5941,0,0,0,0,0,0,0,0,1.567,1.5679,1.5758,1.5761,1.5764,1.5821,1.5806,1.5874,1.5841,1.5812,1.5838,1.5837,1.5888,1.5894,1.5911,1.5974,1.5978,1.5939,1.5942,1.5943,1.5945,0,0,0,0,0,0,0,1.5665,1.5675,1.5775,1.576,1.5763,1.5767,1.5776,1.5819,1.5854,1.5814,1.5815,1.5825,1.5889,1.5907,1.5913,1.5979,1.5939,1.5943,1.5945,1.5947,1.6084,1.6086,0,0,0,0,0,0,1.5657,1.5671,1.5772,1.5777,1.5714,1.5771,1.578,1.5803,1.5854,1.586,1.5825,1.5825,1.5901,1.5908,1.5916,1.5972,1.5943,1.5947,1.595,1.6083,1.6085,1.6086,0,0,0,0,0,0,1.5654,1.5666,1.5769,1.5725,1.5738,1.5774,1.58,1.5805,1.5824,1.5862,1.5869,1.5837,1.59,1.591,1.5957,1.5975,1.5949,1.5953,1.6082,1.6084,1.6085,1.6084,0,0,0,0,0,0,1.565,1.5665,1.5681,1.5725,1.574,1.5808,1.5801,1.5808,1.5831,1.5831,1.5875,1.5881,1.59,1.5951,1.5961,1.5981,1.5956,1.608,1.6083,1.6085,1.6083,1.6086,1.6088,0,0,0,0,0,1.5645,1.5677,1.5682,1.5694,1.5762,1.5809,1.5818,1.5839,1.5832,1.5849,1.5875,1.588,1.5972,1.5956,1.5968,1.5988,1.6079,1.6082,1.6085,1.6081,1.6085,1.6088,0,0,0,0,0,0,1.5635,1.5683,1.5689,1.5736,1.5769,1.5812,1.5834,1.5842,1.5876,1.5875,1.59,1.591,1.5956,1.5977,1.5958,1.6035,1.6025,1.603,1.6019,1.6023,1.6025,1.6019,1.596,0,0,0,0,0,1.5638,1.5672,1.5713,1.5751,1.5767,1.5798,1.5819,1.5833,1.5867,1.588,1.5909,1.5942,1.5979,1.6002,1.6038,1.6086,1.6097,1.6107,1.6109,1.6111,1.6115,1.6144,1.6149,1.6095,1.6095,1.6095,0,0,1.5645,1.5676,1.5695,1.575,1.5776,1.5811,1.5809,1.5846,1.5872,1.5886,1.5932,1.5954,1.5993,1.6041,1.6064,1.606,1.6133,1.6115,1.6116,1.6119,1.6147,1.6152,1.6157,1.6096,1.6096,1.6096,0,0,1.5675,1.5702,1.5737,1.5764,1.5804,1.5825,1.5833,1.5876,1.5891,1.5938,1.595,1.5982,1.6044,1.6072,1.6094,1.6137,1.6144,1.6148,1.6162,1.619,1.6194,1.6198,1.6214,1.6219,1.6152,1.6152,1.6152,0,1.5678,1.5731,1.5754,1.5791,1.5814,1.583,1.5866,1.5891,1.5941,1.5957,1.5953,1.6032,1.6059,1.6115,1.6126,1.6143,1.6154,1.6143,1.6191,1.6196,1.62,1.6215,1.6221,1.6152,1.6152,1.6152,1.6152,0,1.5734,1.577,1.5794,1.5842,1.5869,1.5905,1.5934,1.5959,1.5971,1.5992,1.6041,1.6074,1.6117,1.6132,1.6144,1.619,1.6186,1.6186,1.6177,1.6205,1.622,1.6226,1.6153,1.6153,1.6153,1.6153,0,0,1.5758,1.582,1.5828,1.585,1.5897,1.5926,1.5964,1.6007,1.6027,1.6062,1.6095,1.6148,1.6149,1.6174,1.619,1.6214,1.6247,1.6211,1.6213,1.6217,1.6301,1.63,1.6307,1.6253,1.6254,1.6255,1.6298,0,1.5794,1.5861,1.5883,1.5939,1.5974,1.599,1.6023,1.6056,1.6078,1.6111,1.6135,1.6173,1.6171,1.6186,1.6211,1.6238,1.6264,1.6235,1.6283,1.6285,1.6272,1.6314,1.6313,1.6352,1.6304,1.6305,1.6305,0,1.5844,1.588,1.5939,1.5983,1.5998,1.6027,1.6069,1.6101,1.6139,1.6153,1.6183,1.6197,1.6238,1.6227,1.6285,1.6264,1.6286,1.6302,1.6304,1.6309,1.6296,1.632,1.6365,1.6371,1.6315,1.6314,1.6313,0,1.5855,1.5919,1.5963,1.5982,1.6034,1.6054,1.6077,1.6114,1.6139,1.6176,1.6193,1.6234,1.6256,1.6288,1.6314,1.6304,1.6369,1.6361,1.6383,1.6382,1.6395,1.6393,1.6443,1.6409,1.6409,1.6409,1.6409,0,1.5892,1.5928,1.5969,1.5996,1.6037,1.6063,1.6104,1.6127,1.6161,1.6193,1.621,1.6241,1.6273,1.6308,1.6328,1.6373,1.6383,1.6396,1.6401,1.6394,1.6392,1.6408,1.6406,1.6411,1.641,1.641,1.641,0,1.5911,1.594,1.5989,1.6035,1.6048,1.6076,1.6116,1.6143,1.6167,1.6208,1.6219,1.6256,1.6298,1.6327,1.6381,1.6395,1.6444,1.6448,1.6431,1.6433,1.6453,1.6451,1.6514,1.6524,1.6484,1.6484,1.6485,0,1.5933,1.5961,1.601,1.6033,1.6056,1.6093,1.6119,1.6147,1.6173,1.622,1.6242,1.6285,1.6321,1.6389,1.642,1.6462,1.6468,1.6488,1.6474,1.6467,1.6468,1.6466,1.6469,1.6489,1.6489,1.649,1.649,0,1.5968,1.5981,1.6017,1.6059,1.6089,1.6124,1.6158,1.6176,1.621,1.6239,1.6283,1.6311,1.6367,1.641,1.6455,1.648,1.6491,1.6494,1.6501,1.6494,1.6483,1.6489,1.6436,1.6492,1.6492,1.6492,1.6491,1.6491,1.5989,1.6015,1.6054,1.6094,1.6123,1.6156,1.6184,1.6212,1.6248,1.6296,1.6311,1.6356,1.6396,1.6458,1.6483,1.652,1.6518,1.6528,1.6531,1.6533,1.6533,1.6478,1.6528,1.6528,1.6528,1.6528,1.6528,0,1.6024,1.6051,1.6088,1.6136,1.6168,1.6176,1.6215,1.6242,1.6281,1.6317,1.6353,1.6404,1.6447,1.6483,1.6527,1.6549,1.6556,1.656,1.6558,1.6564,1.6532,1.6521,1.6554,1.6554,1.6554,1.6554,1.6554,1.6554,1.6046,1.6091,1.611,1.617,1.6196,1.6241,1.6263,1.6293,1.6322,1.6378,1.6414,1.6437,1.6474,1.6521,1.6561,1.6571,1.6586,1.659,1.66,1.6569,1.6566,1.6563,1.6553,1.6593,1.6593,1.6629,1.663,1.663]},{"header":{"parameterUnit":"m.s-1","parameterCategory":1,"la1":30.2991,"la2":30.254,"lo1":-89.0895,"lo2":-89.0444,"dy":0.0017,"dx":0.0017,"nx":28,"ny":28,"refTime":"2024-12-04T03:00:00:Z","depth":0,"parameterNumber":3,"parameterNumberName":"V-component_of_WINDS"},"data":[0,0,0,0,0,0,0,0,0,0,0,0,0,0,0,0,0,0,0,0,0,0,0,0,0,0,0,0,0,0,0,0,0,0,0,0,0,0,0,0,0,0,0,0,0,0,0,0,0,0,0,0,0,0,0,0,0,0,-6.0833,-6.0834,0,-6.0913,-6.0914,-6.0915,-6.0894,-6.0892,-6.0891,-6.0889,-6.0964,-6.0967,-6.097,0,0,0,0,0,0,0,0,0,0,0,0,0,-6.0657,-6.066,-6.0833,-6.0834,-6.0835,-6.0913,-6.0914,-6.0915,-6.0894,-6.0892,-6.089,-6.0888,-6.0962,-6.0967,-6.0971,0,0,0,0,0,0,0,0,0,0,0,0,0,-6.0734,-6.0661,-6.0833,-6.0834,-6.0835,-6.0913,-6.0914,-6.0915,-6.0894,-6.0892,-6.089,-6.0887,-6.0961,-6.0966,-6.0971,-6.105,0,0,-6.0987,-6.0989,0,0,0,0,0,0,0,0,-6.073,-6.0741,-6.0833,-6.0834,-6.0835,-6.0891,-6.0879,-6.096,-6.0895,-6.0871,-6.0889,-6.0886,-6.0941,-6.0948,-6.0968,-6.1054,-6.1057,-6.0988,-6.0991,-6.0993,-6.0994,0,0,0,0,0,0,0,-6.0725,-6.0737,-6.0864,-6.0834,-6.0836,-6.0829,-6.0837,-6.0895,-6.0918,-6.0873,-6.0872,-6.0882,-6.0941,-6.0963,-6.0969,-6.1058,-6.0987,-6.0992,-6.0995,-6.0997,-6.1217,-6.122,0,0,0,0,0,0,-6.0719,-6.0733,-6.0862,-6.0867,-6.0776,-6.0834,-6.0843,-6.0875,-6.0918,-6.0922,-6.0884,-6.0881,-6.0955,-6.0963,-6.0972,-6.107,-6.0993,-6.0998,-6.1001,-6.1214,-6.1218,-6.1221,0,0,0,0,0,0,-6.0715,-6.0731,-6.0858,-6.08,-6.0815,-6.084,-6.0876,-6.0878,-6.09,-6.0926,-6.0929,-6.0902,-6.0953,-6.0964,-6.1032,-6.1072,-6.1,-6.1005,-6.1211,-6.1215,-6.1219,-6.1264,0,0,0,0,0,0,-6.0711,-6.073,-6.0761,-6.0801,-6.0819,-6.0919,-6.0878,-6.0881,-6.091,-6.0906,-6.0944,-6.0948,-6.0952,-6.1025,-6.1038,-6.1077,-6.1009,-6.1208,-6.1213,-6.1218,-6.1259,-6.1269,-6.1278,0,0,0,0,0,-6.0704,-6.0768,-6.0762,-6.0778,-6.0858,-6.0921,-6.0932,-6.0938,-6.0913,-6.0944,-6.0962,-6.0946,-6.1066,-6.1032,-6.1046,-6.1088,-6.1205,-6.1212,-6.1218,-6.1255,-6.1267,-6.1278,0,0,0,0,0,0,-6.0728,-6.0773,-6.0767,-6.0846,-6.0881,-6.0918,-6.0957,-6.095,-6.099,-6.0985,-6.0989,-6.0998,-6.1068,-6.1085,-6.1047,-6.1169,-6.1132,-6.1141,-6.1155,-6.1167,-6.1176,-6.1171,-6.1013,0,0,0,0,0,-6.0743,-6.0793,-6.0828,-6.0894,-6.0912,-6.0932,-6.0959,-6.0962,-6.0997,-6.1011,-6.1033,-6.1065,-6.1111,-6.114,-6.1182,-6.1262,-6.1271,-6.1298,-6.1308,-6.1315,-6.1323,-6.1369,-6.1382,-6.1241,-6.1241,-6.1241,0,0,-6.0773,-6.0804,-6.0834,-6.09,-6.0927,-6.0977,-6.0944,-6.0997,-6.1035,-6.1018,-6.1085,-6.1102,-6.1139,-6.1215,-6.1248,-6.123,-6.1364,-6.1323,-6.1329,-6.1332,-6.1377,-6.139,-6.1402,-6.1245,-6.1244,-6.1244,0,0,-6.0854,-6.0882,-6.0942,-6.0971,-6.1014,-6.1028,-6.1042,-6.1082,-6.1094,-6.1162,-6.1152,-6.1195,-6.1272,-6.13,-6.1324,-6.1421,-6.1409,-6.1434,-6.1482,-6.1527,-6.1538,-6.1548,-6.1584,-6.1597,-6.1442,-6.1442,-6.1442,0,-6.0885,-6.0962,-6.0972,-6.1029,-6.1058,-6.105,-6.111,-6.1137,-6.1191,-6.1211,-6.1191,-6.129,-6.1314,-6.1397,-6.1421,-6.1441,-6.1457,-6.1429,-6.1537,-6.1546,-6.1556,-6.159,-6.1603,-6.1445,-6.1445,-6.1444,-6.1444,0,-6.0999,-6.1054,-6.1096,-6.1153,-6.1188,-6.1245,-6.1263,-6.1297,-6.1298,-6.1313,-6.1384,-6.1413,-6.1463,-6.1483,-6.1482,-6.1567,-6.1554,-6.1535,-6.1498,-6.1572,-6.1604,-6.1617,-6.1449,-6.1448,-6.1447,-6.1446,0,0,-6.1094,-6.116,-6.1175,-6.1202,-6.1252,-6.1293,-6.1351,-6.1403,-6.1433,-6.1471,-6.152,-6.1588,-6.1572,-6.1599,-6.1602,-6.1642,-6.1719,-6.1618,-6.1619,-6.1637,-6.1816,-6.183,-6.1845,-6.1712,-6.1715,-6.1717,-6.1813,0,-6.118,-6.1286,-6.1298,-6.1391,-6.1442,-6.1437,-6.1488,-6.1523,-6.154,-6.1585,-6.1602,-6.1652,-6.1626,-6.1643,-6.1682,-6.1701,-6.1755,-6.1694,-6.1757,-6.1759,-6.1748,-6.1862,-6.1876,-6.1966,-6.1826,-6.1828,-6.1829,0,-6.1294,-6.134,-6.144,-6.1486,-6.1508,-6.1554,-6.1605,-6.1648,-6.1688,-6.1698,-6.1732,-6.173,-6.179,-6.1752,-6.1834,-6.1793,-6.1819,-6.1833,-6.1836,-6.1842,-6.1798,-6.1871,-6.1995,-6.2008,-6.1849,-6.1848,-6.1846,0,-6.1355,-6.1442,-6.1514,-6.1537,-6.1592,-6.1625,-6.1649,-6.1687,-6.1719,-6.1763,-6.1784,-6.1833,-6.186,-6.1898,-6.191,-6.188,-6.1993,-6.1954,-6.2002,-6.2002,-6.2025,-6.2023,-6.2155,-6.2042,-6.2041,-6.2041,-6.2041,0,-6.145,-6.1511,-6.1543,-6.1587,-6.1656,-6.167,-6.1737,-6.1759,-6.1795,-6.1842,-6.184,-6.1884,-6.1898,-6.1944,-6.1954,-6.2022,-6.2033,-6.2042,-6.2044,-6.2043,-6.2042,-6.206,-6.2054,-6.2045,-6.2044,-6.2043,-6.2043,0,-6.1528,-6.1552,-6.1631,-6.1679,-6.1692,-6.1741,-6.1781,-6.1824,-6.1842,-6.1903,-6.1917,-6.1945,-6.2,-6.2017,-6.2082,-6.2089,-6.2169,-6.2164,-6.2156,-6.2156,-6.2204,-6.2199,-6.2351,-6.2372,-6.2245,-6.2246,-6.2247,0,-6.1587,-6.1636,-6.169,-6.1724,-6.1751,-6.1804,-6.1839,-6.1855,-6.189,-6.1943,-6.1979,-6.2035,-6.208,-6.2169,-6.2193,-6.2244,-6.2241,-6.2291,-6.2248,-6.2247,-6.2243,-6.2241,-6.2246,-6.2299,-6.23,-6.2301,-6.2302,0,-6.169,-6.1701,-6.1752,-6.1809,-6.1851,-6.1895,-6.1937,-6.1965,-6.1987,-6.2027,-6.2086,-6.2122,-6.2191,-6.2247,-6.2299,-6.2322,-6.2316,-6.2316,-6.233,-6.2329,-6.2323,-6.2328,-6.2179,-6.2312,-6.2311,-6.231,-6.231,-6.2309,-6.1762,-6.1806,-6.1853,-6.191,-6.1945,-6.1986,-6.203,-6.2056,-6.2106,-6.2167,-6.2173,-6.2237,-6.2278,-6.2349,-6.2375,-6.2424,-6.2409,-6.2429,-6.2434,-6.2439,-6.2444,-6.2316,-6.2433,-6.2433,-6.2433,-6.2433,-6.2432,0,-6.1865,-6.1897,-6.195,-6.2013,-6.2059,-6.2053,-6.2101,-6.2139,-6.2197,-6.2238,-6.2284,-6.2353,-6.2408,-6.2439,-6.2494,-6.2527,-6.2526,-6.2541,-6.2539,-6.2545,-6.2453,-6.2436,-6.2542,-6.2542,-6.2541,-6.2541,-6.2541,-6.2541,-6.1925,-6.2,-6.2017,-6.211,-6.214,-6.2205,-6.2233,-6.2271,-6.2305,-6.2383,-6.243,-6.2452,-6.2489,-6.2547,-6.2597,-6.2605,-6.2625,-6.2642,-6.2648,-6.2562,-6.2551,-6.254,-6.2524,-6.2647,-6.2647,-6.2736,-6.2737,-6.2738]}]]